Location: Mizzole
(45.4833°N, 11.0500°E)
Time: 07:44:52
(UTC+00:00)

ATLAS CENTAUR R/B - Pass Details

Date: 21 October 2019
Orbit: 456 x 692 km, 64.6° (Epoch: 31 October)

Event Time Altitude Azimuth Distance (km) Brightness Sun altitude
Rises 18:25:21 0° 331° (NNW) 2,961 5.6 -22.5°
Reaches altitude 10° 18:28:49 10° 357° (N) 1,996 4.3 -23.1°
Enters shadow 18:30:12 13° 14° (NNE) 1,777 3.8 -23.4°
